Location: ČR
(50.0000°N, 15.0000°E)
Time: 19:57:51
(UTC+00:00)

Vanguard 3 - Pass Details

Date: 21 October 2021
Orbit: 508 x 3260 km, 33.4° (Epoch: 04 December)

Event Time Altitude Azimuth Distance (km) Brightness Sun altitude
Rises 21:37:11 0° 264° (W) 5,132 11.4 -48.6°
Reaches altitude 10° 21:40:58 10° 251° (WSW) 4,535 10.9 -48.9°
Enters shadow 21:42:35 14° 245° (WSW) 4,352 10.8 -49.0°
Maximum altitude 21:50:57 25° 203° (SSW) 4,240 - -49.5°
Drops below altitude 10° 22:04:11 10° 158° (SSE) 6,068 - -50.1°
Sets 22:10:30 0° 147° (SSE) 7,210 - -50.4°
